When you browse on this site, cookies collect data to enhance your experience and personalize the content and advertising you see.
Visit our Privacy Policy to learn more. By continuing to use the site, you agree to this use of cookies and data.
  • In Czech Republic
  • List of Countries
  • For 7 days
  • Water Temperature
  • Weather Map
  • Weather Widgets
  • user-avatar
    Login

    Hourly Weather Isit

    Today, 2 June, Tuesday

    Time Temperature Precipitation Wind Pressure Humidity
    00:00 +8°C° 0 mm 1 mps 734 mmHg 58%
    01:00 +7°C° 0 mm 1 mps 734 mmHg 59%
    02:00 +6°C° 0 mm 1 mps 734 mmHg 61%
    03:00 +7°C° 0 mm 0 mps 734 mmHg 58%
    04:00 +8°C° 0 mm 0 mps 734 mmHg 55%
    05:00 +10°C° 0 mm 0 mps 734 mmHg 51%
    06:00 +13°C° 0 mm 1 mps 734 mmHg 44%
    07:00 +15°C° 0 mm 1 mps 734 mmHg 37%
    08:00 +17°C° 0 mm 2 mps 733 mmHg 30%
    09:00 +18°C° 0 mm 2 mps 733 mmHg 28%
    10:00 +19°C° 0 mm 2 mps 733 mmHg 27%
    11:00 +20°C° 0 mm 3 mps 733 mmHg 26%
    12:00 +20°C° 0 mm 3 mps 733 mmHg 25%
    13:00 +21°C° 0 mm 3 mps 733 mmHg 24%
    14:00 +21°C° 0 mm 3 mps 732 mmHg 24%
    15:00 +21°C° 0 mm 3 mps 732 mmHg 25%
    16:00 +21°C° 0 mm 3 mps 732 mmHg 26%
    17:00 +20°C° 0 mm 3 mps 732 mmHg 27%
    18:00 +18°C° 0 mm 2 mps 733 mmHg 36%
    19:00 +16°C° 0 mm 2 mps 733 mmHg 44%
    20:00 +14°C° 0 mm 1 mps 733 mmHg 52%
    21:00 +13°C° 0 mm 1 mps 733 mmHg 55%
    22:00 +11°C° 0 mm 1 mps 733 mmHg 58%
    23:00 +9°C° 0 mm 0 mps 733 mmHg 60%

    Tomorrow, 3 June, Wednesday

    Time Temperature Precipitation Wind Pressure Humidity
    00:00 +8°C° 0 mm 0 mps 734 mmHg 61%
    01:00 +8°C° 0 mm 0 mps 734 mmHg 61%
    02:00 +7°C° 0 mm 0 mps 734 mmHg 61%
    03:00 +9°C° 0 mm 0 mps 734 mmHg 58%
    04:00 +10°C° 0 mm 0 mps 734 mmHg 55%
    05:00 +12°C° 0 mm 0 mps 735 mmHg 52%
    06:00 +14°C° 0 mm 0 mps 735 mmHg 46%
    07:00 +19°C° 0 mm 1 mps 734 mmHg 40%
    08:00 +21°C° 0 mm 1 mps 734 mmHg 34%
    09:00 +21°C° 0 mm 2 mps 734 mmHg 32%
    10:00 +21°C° 0 mm 2 mps 734 mmHg 29%
    11:00 +23°C° 0 mm 2 mps 734 mmHg 27%
    12:00 +23°C° 0 mm 2 mps 734 mmHg 27%
    13:00 +22°C° 0 mm 3 mps 734 mmHg 28%
    14:00 +22°C° 0 mm 3 mps 734 mmHg 29%
    15:00 +22°C° 0 mm 3 mps 734 mmHg 30%
    16:00 +23°C° 0 mm 2 mps 734 mmHg 32%
    17:00 +21°C° 0 mm 2 mps 734 mmHg 33%
    18:00 +20°C° 0 mm 2 mps 734 mmHg 41%
    19:00 +19°C° 0 mm 1 mps 734 mmHg 49%
    20:00 +16°C° 0 mm 1 mps 734 mmHg 57%
    21:00 +14°C° 0 mm 1 mps 734 mmHg 60%
    22:00 +12°C° 0 mm 0 mps 735 mmHg 64%
    23:00 +10°C° 0 mm 0 mps 735 mmHg 67%

    Day after tomorrow, 4 June, Thursday

    Time Temperature Precipitation Wind Pressure Humidity
    00:00 +10°C° 0.1 mm 0 mps 735 mmHg 71%
    01:00 +9°C° 0.1 mm 0 mps 735 mmHg 76%
    02:00 +8°C° 0.1 mm 0 mps 735 mmHg 80%
    03:00 +9°C° 0.1 mm 0 mps 735 mmHg 78%
    04:00 +11°C° 0.1 mm 0 mps 736 mmHg 77%
    05:00 +12°C° 0.1 mm 0 mps 736 mmHg 75%
    06:00 +15°C° 0 mm 0 mps 736 mmHg 66%
    07:00 +17°C° 0 mm 0 mps 736 mmHg 57%
    08:00 +20°C° 0 mm 0 mps 736 mmHg 48%
    09:00 +23°C° 0 mm 1 mps 736 mmHg 42%
    10:00 +24°C° 0 mm 1 mps 736 mmHg 37%
    11:00 +25°C° 0 mm 1 mps 736 mmHg 31%
    12:00 +24°C° 0 mm 1 mps 735 mmHg 31%
    13:00 +24°C° 0 mm 1 mps 735 mmHg 31%
    14:00 +24°C° 0 mm 1 mps 735 mmHg 31%
    15:00 +24°C° 0 mm 1 mps 735 mmHg 33%
    16:00 +23°C° 0 mm 1 mps 735 mmHg 35%
    17:00 +23°C° 0 mm 1 mps 735 mmHg 37%
    18:00 +20°C° 0.2 mm 2 mps 735 mmHg 49%
    19:00 +17°C° 0.2 mm 2 mps 735 mmHg 61%
    20:00 +15°C° 0.2 mm 2 mps 735 mmHg 73%
    21:00 +13°C° 0.2 mm 2 mps 736 mmHg 79%
    22:00 +12°C° 0.2 mm 2 mps 736 mmHg 84%
    23:00 +11°C° 0.2 mm 1 mps 736 mmHg 89%

    5 June, Friday

    Time Temperature Precipitation Wind Pressure Humidity
    00:00 +10°C° 0 mm 1 mps 736 mmHg 90%
    01:00 +10°C° 0 mm 1 mps 736 mmHg 91%
    02:00 +8°C° 0 mm 0 mps 736 mmHg 91%
    03:00 +9°C° 0 mm 0 mps 736 mmHg 89%
    04:00 +11°C° 0 mm 0 mps 736 mmHg 86%
    05:00 +12°C° 0 mm 0 mps 736 mmHg 83%
    06:00 +14°C° 0.1 mm 0 mps 736 mmHg 74%
    07:00 +17°C° 0.1 mm 0 mps 736 mmHg 65%
    08:00 +19°C° 0.1 mm 0 mps 736 mmHg 56%
    09:00 +21°C° 0 mm 0 mps 736 mmHg 49%
    10:00 +24°C° 0 mm 1 mps 735 mmHg 42%
    11:00 +26°C° 0 mm 1 mps 735 mmHg 35%
    12:00 +24°C° 0 mm 0 mps 735 mmHg 34%
    13:00 +24°C° 0 mm 0 mps 735 mmHg 32%
    14:00 +24°C° 0 mm 0 mps 734 mmHg 30%
    15:00 +26°C° 0 mm 1 mps 734 mmHg 30%
    16:00 +25°C° 0 mm 1 mps 734 mmHg 30%
    17:00 +25°C° 0 mm 1 mps 734 mmHg 30%
    18:00 +22°C° 0 mm 1 mps 734 mmHg 40%
    19:00 +20°C° 0 mm 1 mps 734 mmHg 49%
    20:00 +18°C° 0 mm 1 mps 734 mmHg 58%
    21:00 +15°C° 0 mm 1 mps 734 mmHg 61%
    22:00 +14°C° 0 mm 1 mps 734 mmHg 64%
    23:00 +11°C° 0 mm 0 mps 734 mmHg 68%

    6 June, Saturday

    Time Temperature Precipitation Wind Pressure Humidity
    00:00 +12°C° 0 mm 1 mps 734 mmHg 70%
    01:00 +11°C° 0 mm 1 mps 734 mmHg 72%
    02:00 +11°C° 0 mm 1 mps 734 mmHg 74%
    03:00 +11°C° 0 mm 0 mps 734 mmHg 71%
    04:00 +12°C° 0 mm 0 mps 734 mmHg 68%
    05:00 +14°C° 0 mm 0 mps 734 mmHg 65%
    06:00 +16°C° 0 mm 0 mps 733 mmHg 58%
    07:00 +20°C° 0 mm 1 mps 733 mmHg 50%
    08:00 +23°C° 0 mm 1 mps 733 mmHg 42%
    09:00 +24°C° 0 mm 1 mps 733 mmHg 37%
    10:00 +25°C° 0 mm 1 mps 732 mmHg 33%
    11:00 +27°C° 0 mm 1 mps 732 mmHg 29%
    12:00 +26°C° 0 mm 1 mps 732 mmHg 29%
    13:00 +26°C° 0 mm 1 mps 732 mmHg 29%
    14:00 +26°C° 0 mm 1 mps 731 mmHg 29%
    15:00 +25°C° 0 mm 1 mps 731 mmHg 32%
    16:00 +25°C° 0 mm 1 mps 731 mmHg 35%
    17:00 +24°C° 0 mm 1 mps 731 mmHg 38%
    18:00 +21°C° 0 mm 2 mps 731 mmHg 46%
    19:00 +19°C° 0 mm 2 mps 731 mmHg 53%
    20:00 +17°C° 0 mm 3 mps 731 mmHg 60%
    21:00 +16°C° 0 mm 3 mps 731 mmHg 66%
    22:00 +15°C° 0 mm 2 mps 731 mmHg 71%
    23:00 +13°C° 0 mm 2 mps 731 mmHg 77%

    7 June, Sunday

    Time Temperature Precipitation Wind Pressure Humidity
    00:00 +13°C° 0 mm 2 mps 730 mmHg 78%
    01:00 +12°C° 0 mm 2 mps 730 mmHg 79%
    02:00 +10°C° 0 mm 2 mps 730 mmHg 81%
    03:00 +13°C° 0 mm 2 mps 730 mmHg 75%
    04:00 +13°C° 0 mm 3 mps 729 mmHg 70%
    05:00 +14°C° 0 mm 3 mps 729 mmHg 65%
    06:00 +17°C° 0 mm 4 mps 729 mmHg 58%
    07:00 +19°C° 0 mm 4 mps 728 mmHg 50%
    08:00 +21°C° 0 mm 5 mps 728 mmHg 43%
    09:00 +22°C° 0 mm 5 mps 728 mmHg 41%
    10:00 +23°C° 0 mm 5 mps 727 mmHg 38%
    11:00 +24°C° 0 mm 6 mps 727 mmHg 35%
    12:00 +25°C° 0 mm 5 mps 726 mmHg 36%
    13:00 +25°C° 0 mm 5 mps 725 mmHg 38%
    14:00 +23°C° 0 mm 5 mps 725 mmHg 39%
    15:00 +23°C° 0 mm 5 mps 724 mmHg 43%
    16:00 +22°C° 0 mm 5 mps 724 mmHg 47%
    17:00 +21°C° 0 mm 4 mps 724 mmHg 51%
    18:00 +19°C° 0.2 mm 3 mps 724 mmHg 63%
    19:00 +17°C° 0.2 mm 3 mps 724 mmHg 76%
    20:00 +15°C° 0.2 mm 2 mps 723 mmHg 88%
    21:00 +14°C° 0.2 mm 3 mps 723 mmHg 89%
    22:00 +13°C° 0.2 mm 3 mps 723 mmHg 90%
    23:00 +13°C° 0.2 mm 4 mps 722 mmHg 90%
    Show more